ATLAS 5 CENTAUR R/B, 46919

Orbit data source: Space-Track

ATLAS 5 CENTAUR R/B, 46919 is space debris originally from a launch on Fri, 13 Nov 2020 UTC launched from the Air Force Eastern Test Range (AFETR). Debris objects in space refer to the collection of defunct objects orbiting the Earth. Examples of debris include non-operational satellites, rocket bodies, and fragments generated from explosions, collisions, or faulty payload assembly.

Loading next visibility...
Identifier
46919, 2020-083B
Orbit
Active
Country
Flag of USUS
Related business
Flag of USUnited Launch Alliance/Lockheed Martin (US)
Manufacturer
ULA Decatur
Mission
Spacecraft
Bus & Motor
CENTAUR SEC, RL10C-1
Mass
~2,020 kg wet, 2,020 kg dry
Launch date (UTC)
2020-11-13 (5 years ago)
Launch vehicle
Unknown
Launch site
Air Force Eastern Test Range (AFETR)
Object type
Payload
Rocket body
Debris
Shape & HBR
Cyl + 1 Nozzle, 5.8 m
Radar Cross Section
32.260 m²

Expand to show TLE details & history
Last TLE update: 14 hours ago

TLE from 14 hours ago
0 ATLAS 5 CENTAUR R/B
1 46919U 20083B   26127.86282269 -.00000028  00000-0  00000+0 0  9993
2 46919  58.9354 328.5905 0132193 225.5258 133.4268  3.86388142 43923
Epoch: 2026-05-07T20:42Z
TLE epoch observation values (Epoch: 2026-05-07T20:42:27.880Z)
Latitude
-0°
Longitude
152.2742°
Altitude
10,934.698 km
Speed
4.776 km/s
True Right ascension
21h 54m 22s
True Declination
0° 00' 00"
Sunlit
Object was in daylight at epoch
Visualization orbit readout
Latitude
Unknown
Longitude
Unknown
Altitude
Unknown
Speed
Unknown
Apparent Right ascension
Unknown
Apparent Declination
Unknown
Sunlit
N/A
Visualization observer readout
Local Sidereal Time
18:32:53
Azimuth
Unknown
Elevation
Unknown
Doppler factor
Unknown
Orbital elements
Apogee altitude
11,003.199 km
Perigee altitude
10,549.657 km
Semi-major axis
17,154.565 km
Eccentricity
0.01322
Inclination
58.9354°
RAAN
328.5905°
Arg. of periapsis
225.5258°
True anomaly
134.51452°
Mean anomaly
133.4268°
Eccentric anomaly
133.97189°
Mean motion
0.96599 °/min
Orbital period
372.67 mins
BSTAR
0
Loading maneuver chart data...
Computing Atmospheric mass density...
Loading historical data...
Loading historical data...
Loading historical data...
Loading historical data...
Loading historical data...
Loading historical data...
Loading historical data...
Other satellites on launch #83 in the year 2020 (2020-11-13 UTC)

Documentation

Showing up to 5 results
|